Погода в Черлаке

Погода в Черлаке : погода сейчас, прогноз погоды и архив. Всё, что Вы хотите узнать о погоде в Черлаке!

Хотите узнать прогноз погоды в Черлаке? Тогда Вам сюда: Погода в Черлаке

Поиск расширенной информации на нашем сайте:

Другие новости

Новости СМИ2

Главная страница сайта

Новости сайта

03.07.2017

Напоминаем, что на нашем специализированном сайте Метеоцентр.Азия вы можете получить высокодетализированные автоматические прогнозы погоды по пунктам России, СНГ и мира в авиационном формате (включающие направление и скорость ветра, видимость, явления погоды, количество и форму облачности, нижнюю и верхнюю границу облачности).


Погода в Черлаке - сегодня

Время (UTC), дата Ветер
(°,м/с) 
Видим.   Явления Облачность Т
(°С)
Тd
(°С)
f(%) Тe
(°С)
Pmin
(гПа)
dP
(гПа)
Po
(мм)
O2
(г/м3)
Тmin Tmax R s Состояние
почвы
00 17.05.18 010 (С) 20000 м    3/0 средняя 
[Ac trans]
-3 -7.5 71 -5  1018.7  753  308           
03 17.05.18 360 (С) 20000 м    3/0 верхняя 
[Ci fib]
+0.4 -8.8 50 -2  1019.7  1.1  754  304  -3.3        влажная 
06 17.05.18 350 (С) 20000 м    8/0 верхняя 
[Cs]
+3.5 -8.3 42 +2  1019.9  0.3  754  301           
09 17.05.18 310 (СЗ) 4{10}  20000 м    6/0 верхняя 
[Ci fib]
+5.8 -7.8 37 +4  1019.8  754  298           
12 17.05.18 320 (СЗ) 20000 м    10/0 верхняя 
[Ci fib]
+7.3 -7.3 35 +7  1019  -0.7  754  297           
15 17.05.18 080 (В) 20000 м    8/0 верхняя 
[Cs]
+5.3 -5.9 44 +6  1018.3  -0.8  753  298    +7.5       
18 17.05.18 160 (Ю) 10 км    6/0 верхняя 
[Cs]
+1.2 -5.1 63 +1  1018.3  -0.3  753  303           
21 17.05.18 220 (ЮЗ) 10 км    4/0 верхняя 
[Ci fib]
+2.3 -4.1 63 +1  1015.8  -2.4  751  301           
00 18.05.18 220 (ЮЗ) 20000 м    10/0 средняя, верхняя 
[Ac As|Ci fib]
+2.1 -2.9 69 +1  1013.5  -2.2  749  300           
03 18.05.18 250 (З) 6-10{11}  20000 м    9/9 600 м кучево-дожд. 
[Cb cap]
+9.1 -2 46 +7  1010.2  -2.9  747  292  +0.8        влажная 
12 18.05.18 340 (С) 4-10{18}  20000 м  {ливн. осадки}  10/10 300 м кучево-дожд. 
[Cb cap]
+3.9 +0.9 81 +2  1011.2  4.2  748  297           
15 18.05.18 350 (С) 4{14}  20000 м    4/3 600 м кучево-дожд., средняя 
[Cb cap|Ac cuf]
+1.5 -5.9 58 -1  1014.9  3.5  750  301    +16.1  0.0     
00 19.05.18 330 (СЗ) 4{11}  20000 м    ясно 
-0.6 -5.8 68 -3  1021.3  2.8  755  306           
03 19.05.18 340 (С) 5-10{11}  20000 м    ясно 
+3.6 -5.5 51 +1  1024.1  757  302  -1.1        влажная 
15 19.05.18 340 (С) 20000 м    ясно 
+8.7 -8.6 28 +10  1026.9  0.6  760  297    +12.2       
18 19.05.18 180 (Ю) 10 км    ясно 
+1.4 -6 58 +2  1028.2  0.9  760  305           
21 19.05.18 160 (Ю) 10 км    3/0 средняя 
[Ac trans]
-1.5 -5.6 74 -1  1028.1  -0.2  760  309           
00 20.05.18 190 (Ю) 20000 м    10/0 средняя, верхняя 
[Ac As|Cc]
+4.2 -6 47 +4  1027.5  -0.3  760  302           
03 20.05.18 250 (З) 20000 м    10/8 600 м кучево-дожд., средняя 
[Cb cap|Ac As]
+8.8 -3.5 42 +8  1026.8  -0.5  759  297  -1.7        сухая 
06 20.05.18 210 (ЮЗ) 10 км  слаб. ливневой дождь  10/8 600 м кучево-дожд., средняя 
[Cb cap|Ac As]
+10.5 +2.1 56 +10  1026  -0.7  759  294           
12 20.05.18 210 (ЮЗ) 5-13{13}  20000 м  в посл. час ливневой дождь  10/8 600 м кучево-дожд., средняя 
[Cb cap|Ac As]
+15.7 +1.5 38 +15  1020  -2.7  755  287           
15 20.05.18 200 (Ю) 4{11}  20000 м    6/0 средняя, верхняя 
[Ac trans|Cs]
+14.4 +2.8 46 +14  1017.5  -2.6  753  288    +16.9  0.4     
18 20.05.18 210 (ЮЗ) н/о    н/о 
+13.1 +0.7 43 +13  1016.4  -1.9  752  289           
21 20.05.18 240 (ЮЗ) н/о    н/о 
+14.7 +1.8 42 +15  1014.9  -1.4  751  287           
00 21.05.18 240 (ЮЗ) 20000 м    10/6 600 м кучево-дожд., верхняя 
[Cb cap|Ci fib]
+14.3 +3.2 47 +15  1014.6  -0.3  751  287           
Время (UTC), дата Ветер
(°,м/с) 
Видим.   Явления Облачность Т
(°С)
Тd
(°С)
f(%) Тe
(°С)
Pmin
(гПа)
dP
(гПа)
Po
(мм)
O2
(г/м3)
Тmin Tmax R s Состояние
почвы

Для получения пояснительной информации подведите курсор к названию столбца.

ПОГОДА в Черлаке - архив

Всё, что Вы хотите узнать о погоде в Черлаке - удобно и подробно!

Выберите нужную дату (начиная с 1 января 2015* года) и нажмите кнопку "Найти".
Будут отображены архивные сводки погоды по пункту Черлак, начиная с указанной даты.


Отображать данные в формате CSV (для использования в таблицах Excel)


Внимание! Наш архив погоды предназначен исключительно для личного некоммерческого использования в познавательных целях. Если Вам необходимы официальные справки о состоянии погоды (для производственных, юридических, коммерческих и т.п. целей), обращайтесь в органы Росгидромета.

*Примечание: данная дата относится к архиву по метеостанциям СССР (Россия, СНГ, Балтия).
Архив по метеостанциям Зарубежной Европы и Азии (кроме Китая) хранится 10 дней, по другим регионам земного шара (Китай, Африка, Америка, Австралия, Океания) - 1 день.

Черлак - район местоположения метеостанции


Название, широта, долгота, высота метеостанции:
Черлак 54.2°ш. 74.8°д. 115 м над ур. моря [Российская Федерация]

Дополнительная информация

В oтличие oт бoльшинства пoгoдных сайтoв мы публикуем пoдрoбную метеoинфoрмацию в детальнoм прoфессиoнальнoм фoрмате.

Характеристики температуры и влажнoсти вoздуха измеряются на высoте 2 м в тени вдали oт зданий и деревьев.
Скoрoсть ветра измеряется на высoте 10 м (на урoвне рoста челoвека скoрoсть ветра ниже в 1.5-2 раза). Если метеoстанция нахoдится в гoрoде или в лесу, тo скoрoсть ветра занижена на 2-4 м/с пo сравнению с oткрытым местoм. Скoрoсть ветра над акватoриями крупных рек и oзёр, а также на вершинах хoлмoв на 2-5 м/с выше, чем в oбычных услoвиях.
Атмoсфернoе давление в разных тoчках местнoсти мoжет значительнo oтличаться oт давления на метеoстанции, в зависимoсти oт услoвий рельефа (при пoдъёме на 10 м давление пoнижается примернo на 1 мм рт.ст.).